This demonstration page uses our WeatherBlox Daily Observations layout. Learn more.

Left ArrowRight Arrow

36.17497, -115.13722

Hourly Observations for October 22, 2016

Temp ( °F °C ) Dew Point ( °F °C ) Humidity (%) Winds ( mph kmh ) Pressure ( in mb ) Visibility ( mi km ) Precip ( " mm )
12:53 am 00:53 Clear 62 16.7 29 -1.7 29 29 NNW 5 7 29.91 1013 10 16.0934 0 0
1:53 am 01:53 Clear 62 16.7 27 -2.8 26 26 NW 7 11 29.92 1013 10 16.0934 0 0
2:53 am 02:53 Clear 61 16.1 27 -2.8 27 27 NW 6 9 29.91 1013 10 16.0934 0 0
3:53 am 03:53 Clear 58 14.4 28 -2.2 32 32 N 7 11 29.91 1013 10 16.0934 0 0
4:53 am 04:53 Clear 59 15 26 -3.3 28 28 NNW 5 7 29.91 1013 10 16.0934 0 0
5:53 am 05:53 Clear 59 15 26 -3.3 28 28 NNW 3 6 29.92 1013 10 16.0934 0 0
6:53 am 06:53 Clear 56 13.3 26 -3.3 32 32 NNW 6 9 29.93 1014 10 16.0934 0 0
7:53 am 07:53 Sunny 59 15 30 -1.1 33 33 Calm 29.95 1014 10 16.0934 0 0
8:53 am 08:53 Sunny 67 19.4 32 0 27 27 Calm 29.96 1014 10 16.0934 0 0
9:53 am 09:53 Sunny 70 21.1 26 -3.3 19 19 SSE 5 7 29.96 1014 10 16.0934 0 0
10:53 am 10:53 Sunny 75 23.9 25 -3.9 15 15 SE 6 9 29.95 1014 10 16.0934 0 0
11:53 am 11:53 Sunny 78 25.6 29 -1.7 16 16 SE 6 9 29.93 1014 10 16.0934 0 0
12:53 pm 12:53 Sunny 81 27.2 29 -1.7 15 15 ESE 5 7 29.9 1013 10 16.0934 0 0
1:53 pm 13:53 Sunny 85 29.4 30 -1.1 14 14 SE 8 13 29.86 1011 10 16.0934 0 0
2:53 pm 14:53 Sunny 87 30.6 30 -1.1 13 13 SSE 8 13 29.84 1011 10 16.0934 0 0
3:53 pm 15:53 Sunny 88 31.1 28 -2.2 11 11 ESE 7 11 29.83 1010 10 16.0934 0 0
4:53 pm 16:53 Sunny 88 31.1 28 -2.2 11 11 SE 8 13 29.82 1010 10 16.0934 0 0
5:53 pm 17:53 Sunny 84 28.9 31 -0.6 15 15 ESE 7 11 29.82 1010 10 16.0934 0 0
6:53 pm 18:53 Clear 78 25.6 30 -1.1 17 17 Calm 29.85 1011 10 16.0934 0 0
7:53 pm 19:53 Clear 77 25 32 0 19 19 NW 5 7 29.86 1011 10 16.0934 0 0
8:53 pm 20:53 Clear 74 23.3 33 0.6 22 22 NE 3 6 29.88 1012 10 16.0934 0 0
9:53 pm 21:53 Clear 76 24.4 15 -9.4 10 10 S 10 17 29.89 1012 10 16.0934 0 0
10:53 pm 22:53 Clear 74 23.3 13 -10.6 9 9 Calm 29.9 1013 10 16.0934 0 0
11:53 pm 23:53 Clear 66 18.9 18 -7.8 16 16 Calm 29.91 1013 10 16.0934 0 0

Powered by AerisWeather